Location: Unspecified
(0.0000°N, 0.0000°E)
Time: 06:34:36
(UTC+00:00)

Transit 2A Rocket - Pass Details

Date: 24 November 2019
Orbit: 594 x 909 km, 66.7° (Epoch: 11 December)

Event Time Altitude Azimuth Distance (km) Brightness Sun altitude
Rises 08:01:03 0° 300° (WNW) 3,073 7.6 31.2°
Reaches altitude 10° 08:04:52 10° 269° (W) 2,238 7.0 32.1°
Maximum altitude 08:06:48 12° 247° (WSW) 2,139 7.1 32.5°
Drops below altitude 10° 08:08:47 10° 225° (SW) 2,322 7.4 33.0°
Sets 08:12:58 0° 195° (SSW) 3,338 8.4 33.9°
